Regional Weather Roundup
Issued by NWS Cleveland, OH

Home | Current Version | Previous Version | Graphics & Text | Print | Product List | Glossary On
Versions: 1 2 3 4 5 6 7 8 9 10 11 12 13 14 15 16 17 18 19 20 21 22 23 24 25 26 27 28 29 30 31 32 33 34 35 36 37 38 39 40 41 42 43 44 45 46 47 48 49 50
000
ASUS41 KCLE 221410
RWRCLE
OHIO REGIONAL WEATHER ROUNDUP
NATIONAL WEATHER SERVICE CLEVELAND, OH
1000 AM EDT THU JUN 22 2017

NOTE: "FAIR" INDICATES FEW OR NO CLOUDS BELOW 12,000 FEET WITH NO
SIGNIFICANT WEATHER AND/OR OBSTRUCTIONS TO VISIBILITY.

OHZ001>008-015>018-024>027-034-035-043-044-221500-
   NORTHWEST OHIO

CITY           SKY/WX    TMP DP  RH WIND       PRES   REMARKS
DEFIANCE       CLOUDY    74  67  78 SW7       29.95R
FINDLAY        CLOUDY    78  65  63 SW9       29.96F
TOLEDO EXPRESS CLOUDY    75  69  81 SW9       29.94R
TOLEDO EXEC    CLOUDY    78  70  76 SW13      29.94S
LIMA           CLOUDY    77  69  76 SW8       29.99R
$$

OHZ009>014-019>023-028>033-038-089-221500-
   NORTHEAST OHIO

CITY           SKY/WX    TMP DP  RH WIND       PRES   REMARKS
CLE-HOPKINS    PTSUNNY   78  67  68 SW8       29.98S
CLE-LAKEFRONT  PTSUNNY   77  64  64 S3        29.95F
CUY CO. ARPT   PTSUNNY   77  66  69 W12       29.98S
LORAIN-ELYRIA  CLOUDY    79  65  62 W10       29.96F
ASHTABULA      CLOUDY    71  61  70 S9        29.99F
AKRON-CANTON   CLOUDY    76  65  68 SW7       30.01S
WOOSTER        MOSUNNY   79  67  66 W9        30.01S
MANSFIELD      PTSUNNY   78  67  68 SW8       30.00F
YOUNGSTOWN     MOSUNNY   74  64  71 S6        29.99F
$$

OHZ042-051>053-060>062-070>072-077>081-221500-
  SOUTHWEST OHIO

CITY           SKY/WX    TMP DP  RH WIND       PRES   REMARKS
CINC-COVINGTON PTSUNNY   76  69  79 SW8       30.03R
CINC-LUNKEN    CLOUDY    78  71  79 SW12      30.02S
HAMILTON       CLOUDY    80  71  74 SW7       30.03R
DAYTON         PTSUNNY   77  69  76 SW12      30.02S
WRIGHT-PAT AFB PTSUNNY   79  71  77 SW13      30.01R
DAYTON GENERAL CLOUDY    78  68  71 SW14G20   30.02R
WILMINGTON     MOSUNNY   77  71  82 SW12      30.03R
$$

OHZ036-037-039>041-045>050-054>059-063>069-073>076-082>088-221500-
  CENTRAL AND SOUTHEAST OHIO

CITY           SKY/WX    TMP DP  RH WIND       PRES   REMARKS
COLUMBUS       CLOUDY    79  69  71 SW7       30.02R
OSU AIRPORT    CLOUDY    78  69  73 SW8       30.02R
BOLTON FIELD   PTSUNNY   79  70  73 SW10      30.03R
RICKENBACK AFB CLOUDY    79  69  72 SW9       30.01S
NEWARK         CLOUDY    80  65  59 W9        30.02R
MARION         CLOUDY    77  66  68 SW12      30.01R
LANCASTER      CLOUDY    79  69  71 SW9       30.03R
ZANESVILLE     CLOUDY    79  68  69 SW6       30.03R
NEW PHILLY     NOT AVBL
$$




USA.gov is the U.S. government's official web portal to all federal, state and local government web resources and services.